Gassville, AR

10:50 AM CST on February 20, 2017 (GMT -0600)
Baxter County Regional

Weather History for KBPK - October, 2011

Change the Weather History Date:

Wednesday, October 19, 2011

  Actual Average (KFLP) Record (KFLP)
Temperature  
Mean Temperature 42 °F -  
Max Temperature 46 °F 69 °F 89 °F (2016)
Min Temperature 39 °F 46 °F 30 °F (1996)
Degree Days  
Heating Degree Days 22    
Moisture  
Dew Point 34 °F    
Average Humidity 69    
Maximum Humidity 79    
Minimum Humidity 59    
Precipitation  
Precipitation 0.00 in - - ()
Sea Level Pressure  
Sea Level Pressure 29.91 in    
Wind  
Wind Speed 6 mph (NW)    
Max Wind Speed 10 mph    
Max Gust Speed 21 mph    
Visibility 10 miles    
Events      
Averages and records for this station are not official NWS values.
T = Trace of Precipitation, MM = Missing Value Source: NWS Daily Summary

Daily Weather History Graph

Daily Weather History Graph

Search for Another Location

Airport or City:

Trip Planner

Search our weather history database for the weather conditions in past years. The results will help you decide how hot, cold, wet, or windy it might be!

Date:

Astronomy

Oct. 19, 2011 Rise Set
Actual Time 7:20 AM CDT 6:28 PM CDT
Civil Twilight 6:54 AM CDT 6:54 PM CDT
Nautical Twilight 6:24 AM CDT 7:24 PM CDT
Astronomical Twilight 5:54 AM CDT 7:54 PM CDT
Moon No Moon Rise 1:47 PM CDT (10/19)
Length of Visible Light 12h 00m
Length of Day
11h 08m
Waning Gibbous, 54% of the Moon is Illuminated
Oct 19
Waning Gibbous
Oct 19
Last Quarter
Oct 26
New
Nov 2
First Quarter
Nov 10
Full

Hourly Weather History & Observations

Time (CDT) Temp. Windchill Dew Point Humidity Pressure Visibility Wind Dir Wind Speed Gust Speed Precip Events Conditions
12:53 AM 43.0 °F 40.3 °F 34.0 °F 71% 29.90 in 10.0 mi NNW 4.6 mph - N/A   Clear
1:53 AM 42.1 °F 38.4 °F 34.0 °F 73% 29.89 in 10.0 mi NW 5.8 mph - N/A   Scattered Clouds
2:53 AM 43.0 °F 40.3 °F 35.1 °F 74% 29.87 in 10.0 mi NW 4.6 mph - N/A   Overcast
3:53 AM 43.0 °F 39.5 °F 34.0 °F 71% 29.85 in 10.0 mi Variable 5.8 mph - N/A   Overcast
4:53 AM 39.9 °F 36.7 °F 34.0 °F 79% 29.86 in 10.0 mi Variable 4.6 mph - N/A   Clear
5:53 AM 39.0 °F 32.8 °F 33.1 °F 79% 29.85 in 10.0 mi NW 9.2 mph - N/A   Clear
6:53 AM 39.0 °F 34.8 °F 33.1 °F 79% 29.86 in 10.0 mi Variable 5.8 mph - N/A   Overcast
7:53 AM 39.9 °F 36.7 °F 33.1 °F 77% 29.86 in 10.0 mi Variable 4.6 mph - N/A   Overcast
8:53 AM 41.0 °F 39.0 °F 33.1 °F 73% 29.88 in 10.0 mi Variable 3.5 mph - N/A   Mostly Cloudy
9:53 AM 43.0 °F 37.7 °F 33.1 °F 68% 29.89 in 10.0 mi WNW 9.2 mph 20.7 mph N/A   Overcast
11:53 AM 44.1 °F 41.5 °F 35.1 °F 71% 29.91 in 10.0 mi Variable 4.6 mph - N/A   Overcast
12:53 PM 45.0 °F 40.1 °F 35.1 °F 68% 29.91 in 10.0 mi NNW 9.2 mph 19.6 mph N/A   Overcast
1:53 PM 46.0 °F 41.4 °F 34.0 °F 63% 29.90 in 10.0 mi NW 9.2 mph 18.4 mph N/A   Overcast
2:41 PM 46.4 °F 41.5 °F 33.8 °F 62% 29.89 in 10.0 mi NW 10.4 mph 17.3 mph N/A   Overcast
2:53 PM 46.9 °F - 34.0 °F 61% 29.90 in 10.0 mi Variable 6.9 mph 19.6 mph N/A   Overcast
3:53 PM 46.9 °F - 34.0 °F 61% 29.91 in 10.0 mi NW 9.2 mph 16.1 mph N/A   Overcast
4:53 PM 46.9 °F - 34.0 °F 61% 29.92 in 10.0 mi Variable 5.8 mph - N/A   Overcast
5:53 PM 46.9 °F - 33.1 °F 59% 29.94 in 10.0 mi Variable 6.9 mph - N/A   Overcast
6:53 PM 45.0 °F 42.6 °F 33.1 °F 63% 29.95 in 10.0 mi Variable 4.6 mph - N/A   Scattered Clouds
7:53 PM 44.1 °F 42.5 °F 33.1 °F 65% 29.96 in 10.0 mi Variable 3.5 mph - N/A   Clear
8:53 PM 45.0 °F 43.5 °F 34.0 °F 65% 29.96 in 10.0 mi Variable 3.5 mph - N/A   Mostly Cloudy
9:53 PM 45.0 °F 41.8 °F 34.0 °F 65% 29.96 in 10.0 mi NW 5.8 mph - N/A   Overcast
10:53 PM 44.1 °F 42.5 °F 34.0 °F 68% 29.96 in 10.0 mi Variable 3.5 mph - N/A   Overcast
11:53 PM 45.0 °F 42.6 °F 35.1 °F 68% 29.95 in 10.0 mi Variable 4.6 mph - N/A   Overcast